EW1135 Weather Reports


Display with metric or nautical units.
time (UTC)temp
F
wind
direction
speed
MPH
gust
MPH
rain 1hr
in
rain 24hr
in
rain mn
in
humidity
%
barometer
mb
20260510040059 55 43 13.0 0.0 0.00 0.00 0.00 87 1015.9
20260510034544 56 46 12.0 0.0 0.00 0.00 0.00 87 1015.6
20260510033044 56 42 12.0 0.0 0.00 0.00 0.00 87 1015.6
20260510031541 56 43 11.0 0.0 0.00 0.00 0.00 86 1015.4
20260510030042 57 53 13.0 0.0 0.00 0.00 0.00 86 1015.1
20260510024538 57 44 11.0 0.0 0.00 0.00 0.00 86 1014.9
20260510023035 57 51 10.0 0.0 0.00 0.00 0.00 85 1015.0
20260510021534 58 46 12.0 0.0 0.00 0.00 0.00 85 1015.0
20260510020032 58 52 13.0 0.0 0.00 0.00 0.00 85 1015.0
20260510014520 59 45 10.0 0.0 0.00 0.00 0.00 85 1015.3
20260510013023 59 37 10.0 0.0 0.00 0.00 0.00 85 1015.5
20260510011520 59 50 12.0 0.0 0.00 0.00 0.00 85 1015.6
20260510010019 59 45 13.0 0.0 0.00 0.00 0.00 85 1015.5
20260510004517 59 51 12.0 0.0 0.00 0.00 0.00 85 1015.4
20260510003023 59 47 14.0 0.0 0.00 0.00 0.00 84 1015.3
20260510001517 59 51 17.0 0.0 0.00 0.00 0.00 84 1015.0
20260510000016 60 38 17.0 0.0 0.00 0.00 0.00 84 1015.0
20260509234510 61 50 15.0 0.0 0.00 0.00 0.00 84 1015.2
20260509233001 61 60 13.0 0.0 0.00 0.00 0.00 85 1015.4
20260509231501 60 54 11.0 0.0 0.00 0.00 0.00 85 1015.5
20260509224602 59 50 13.0 0.0 0.00 0.00 0.00 85 1015.6
20260509223100 59 42 14.0 0.0 0.00 0.00 0.00 85 1015.5
20260509221558 59 48 16.0 0.0 0.00 0.00 0.00 85 1015.7
20260509220107 59 46 16.0 0.0 0.00 0.00 0.00 84 1015.7
20260509214545 59 41 18.0 0.0 0.00 0.00 0.00 84 1016.1
20260509213049 59 45 19.0 0.0 0.00 0.00 0.00 84 1016.2
20260509211551 59 44 19.0 0.0 0.00 0.00 0.00 84 1016.2
20260509210042 60 42 20.0 0.0 0.00 0.00 0.00 84 1016.4
20260509204539 61 48 17.0 0.0 0.00 0.00 0.00 84 1016.6
20260509203051 60 67 14.0 0.0 0.00 0.00 0.00 85 1016.8
20260509201535 60 55 13.0 0.0 0.00 0.00 0.00 85 1016.7
20260509200032 59 56 13.0 0.0 0.00 0.00 0.00 85 1016.8
20260509194523 58 40 14.0 0.0 0.00 0.00 0.00 85 1016.9
20260509193018 59 38 15.0 0.0 0.00 0.00 0.00 84 1016.8
20260509191517 59 48 15.0 0.0 0.00 0.00 0.00 84 1016.9
20260509190011 59 44 12.0 0.0 0.00 0.00 0.00 84 1017.2
20260509184512 59 34 11.0 0.0 0.00 0.00 0.00 85 1017.3
20260509183014 58 58 12.0 0.0 0.00 0.00 0.00 85 1017.3
20260509181508 58 43 11.0 0.0 0.00 0.00 0.00 85 1017.3
20260509180008 58 50 9.0 0.0 0.00 0.00 0.00 86 1017.4
20260509174550 57 44 10.0 0.0 0.00 0.00 0.00 86 1017.3
20260509173059 57 53 10.0 0.0 0.00 0.00 0.00 87 1017.3
20260509171536 56 46 9.0 0.0 0.00 0.00 0.00 87 1017.4
20260509170036 55 41 9.0 0.0 0.00 0.00 0.00 88 1017.3
20260509164535 54 48 9.0 0.0 0.00 0.00 0.00 88 1017.3
20260509163034 53 35 7.0 0.0 0.00 0.00 0.00 88 1017.5
20260509161535 53 30 8.0 0.0 0.00 0.00 0.00 88 1017.5
20260509160032 52 40 6.0 0.0 0.00 0.00 0.00 88 1017.4
20260509154532 52 32 7.0 0.0 0.00 0.00 0.00 88 1017.6
20260509153031 51 31 7.0 0.0 0.00 0.00 0.00 88 1017.6
20260509151513 51 46 6.0 0.0 0.00 0.00 0.00 88 1017.8
20260509150013 51 42 5.0 0.0 0.00 0.00 0.00 88 1017.9
20260509144502 51 46 8.0 0.0 0.00 0.00 0.00 88 1017.8
20260509143001 51 115 7.0 0.0 0.00 0.00 0.00 88 1017.8
20260509141604 50 90 4.0 0.0 0.00 0.00 0.00 88 1017.7
20260509140100 50 112 8.0 0.0 0.00 0.00 0.00 88 1017.7
20260509134558 48 117 4.0 0.0 0.00 0.00 0.00 88 1017.6
20260509133103 48 54 6.0 0.0 0.00 0.00 0.00 88 1017.8
20260509131556 49 46 6.0 0.0 0.00 0.00 0.00 87 1017.8
20260509124538 49 107 5.0 0.0 0.00 0.00 0.00 88 1017.8
20260509123032 49 77 4.0 0.0 0.00 0.00 0.00 87 1018.1
20260509121520 49 53 4.0 0.0 0.00 0.00 0.00 87 1018.2
20260509120028 49 72 3.0 0.0 0.00 0.00 0.00 87 1018.4
20260509114517 49 100 4.0 0.0 0.00 0.00 0.00 87 1018.4
20260509113015 49 52 2.0 0.0 0.00 0.00 0.00 87 1018.5
20260509111514 50 37 3.0 0.0 0.00 0.00 0.00 87 1018.7
20260509110018 50 131 5.0 0.0 0.00 0.00 0.00 87 1018.7
20260509104513 50 120 9.0 0.0 0.00 0.00 0.00 87 1018.6
20260509103016 50 142 7.0 0.0 0.00 0.00 0.00 87 1018.5
20260509101608 50 133 3.0 0.0 0.00 0.00 0.00 87 1018.8
20260509100054 50 122 4.0 0.0 0.00 0.00 0.00 87 1019.1
20260509094553 50 78 3.0 0.0 0.00 0.00 0.00 86 1019.2
20260509093052 50 42 4.0 0.0 0.00 0.00 0.00 86 1019.1
20260509091555 50 140 3.0 0.0 0.00 0.00 0.00 86 1019.1
20260509090051 50 110 4.0 0.0 0.00 0.00 0.00 86 1019.1
20260509084548 50 119 6.0 0.0 0.00 0.00 0.00 86 1019.3
20260509083146 50 112 6.0 0.0 0.00 0.00 0.00 86 1019.5
20260509081549 50 139 1.0 0.0 0.00 0.00 0.00 86 1019.6
20260509080033 50 136 1.0 0.0 0.00 0.00 0.00 85 1019.7
20260509074522 50 138 1.0 0.0 0.00 0.00 0.00 85 1019.8
20260509073010 51 138 2.0 0.0 0.00 0.00 0.00 85 1019.9
20260509071507 51 136 2.0 0.0 0.00 0.00 0.00 85 1020.0
20260509070006 51 112 4.0 0.0 0.00 0.00 0.00 85 1020.1
20260509064504 51 127 4.0 0.0 0.00 0.00 0.00 85 1020.2
20260509063001 52 104 3.0 0.0 0.00 0.00 0.00 85 1020.4
20260509061616 52 103 3.0 0.0 0.00 0.00 0.00 85 1020.4
20260509060136 52 92 4.0 0.0 0.00 0.00 0.00 85 1020.6
20260509054602 53 83 4.0 0.0 0.00 0.00 0.00 84 1020.7
20260509053046 53 103 5.0 0.0 0.00 0.00 0.00 84 1020.7
20260509051543 53 78 5.0 0.0 0.00 0.00 0.00 84 1020.7
20260509050058 53 85 4.0 0.0 0.00 0.00 0.00 84 1020.7
20260509044552 53 106 3.0 0.0 0.00 0.00 0.00 84 1020.7
20260509043037 53 102 3.0 0.0 0.00 0.00 0.00 83 1020.8
20260509041537 53 85 3.0 0.0 0.00 0.00 0.00 83 1020.6